Regional Weather Roundup
Issued by NWS Jackson, KY

Home | Current Version | Previous Version | Text Only | Print | Product List | Glossary On
Versions: 1 2 3 4 5 6 7 8 9 10 11 12 13 14 15 16 17 18 19 20 21 22 23 24 25 26 27 28 29 30 31 32 33 34 35 36 37 38 39 40 41 42 43 44 45 46 47 48 49 50
000
ASUS43 KJKL 220419
RWRJKL

EAST KENTUCKY HOURLY WEATHER ROUNDUP
NATIONAL WEATHER SERVICE JACKSON KY
1200 AM EDT FRI AUG 22 2014

NOTE: "FAIR" INDICATES FEW OR NO CLOUDS BELOW 12,000 FEET WITH
NO SIGNIFICANT WEATHER AND/OR OBSTRUCTIONS TO VISIBILITY.

* THESE REPORTS ARE NOT UNDER NWS QUALITY CONTROL AND MAY NOT
  REPORT WEATHER SUCH AS PRECIPITATION AND FOG.

KYZ079-080-083-085-087-088-110-112-115-119-120-220500
...EASTERN KENTUCKY...

CITY           SKY/WX    TMP DP  RH WIND       PRES   REMARKS
JACKSON        MOCLDY    71  68  90 CALM      30.11R
LONDON         PTCLDY    77  71  82 S3        30.11R
SOMERSET*      PTCLDY    75  73  94 CALM      30.11R
MONTICELLO*    CLEAR     72  71  96 CALM      30.11S
MIDDLESBORO*   CLEAR     72  71  96 CALM      30.13S
HARLAN APT*    MOCLDY    68  68 100 MISG      30.15R
HAZARD APT*    CLEAR     72  72 100 CALM      30.12
BLACK MTN*       N/A     68  68 100 S7          N/A
PIKEVILLE APT* PTCLDY    68  68 100 SE5       30.11S
BIG SANDY*     PTCLDY    69  69  99 CALM      30.10R
MOREHEAD APT*  PTCLDY    73  72  94 CALM      30.10R
ASHLAND*       PTCLDY    72  68  88 CALM      30.04S
$$

KYZ035-036-041-042-044-050-067-078-099-220500
...CENTRAL KENTUCKY...

CITY           SKY/WX    TMP DP  RH WIND       PRES   REMARKS
MT STERLING*   MOCLDY    73  72  94 SW5       30.09R
FLEMING/MASON* CLEAR     72  72 100 S5        30.08R
DANVILLE*      CLEAR     75  72  88 S6        30.09R
RICHMOND*      CLEAR     77  70  78 S6        30.08S
LEXINGTON      PTCLDY    78  71  79 S7        30.07R
FRANKFORT      MOCLDY    76  71  85 SW3       30.05R
$$

KYZ091>093-OHZ055-061-077-WVZ005-015-034-035-042-220500
...SOUTHERN OHIO/WEST VIRGINIA...

CITY           SKY/WX    TMP DP  RH WIND       PRES   REMARKS
COVINGTON      CLOUDY    77  73  87 CALM      30.05R
COLUMBUS       CLOUDY    73  70  88 SE7       30.02F
DAYTON         TSTM      70  67  90 W15       30.04S FOG
WILMINGTON     CLOUDY    73  71  93 S8        30.03F FOG
HUNTINGTON     CLEAR     70  69  97 CALM      30.07R
CHARLESTON     CLOUDY    71  71 100 CALM      30.07S FOG
PINEVILLE*     FOG       68  68 100 MISG      30.19S VSB 1
BECKLEY        MOCLDY    66  64  93 SW6       30.16F
BLUEFIELD      CLEAR     66  62  87 W7        30.19S
$$

VAZ002-007-008-TNZ017-027-036-066-071-220500
...SOUTHWEST VIRGINIA/EAST TENNESSEE...

CITY           SKY/WX    TMP DP  RH WIND       PRES   REMARKS
WISE*          PTCLDY    66  66 100 SW6       30.21S
JONESVILLE*      N/A     68  68 100 CALM      30.16S
ABINGDON*      PTCLDY    69  69 100 CALM      30.18R
BRISTOL        MOCLDY    72  68  87 CALM      30.14S
KNOXVILLE      MOCLDY    76  71  85 SW6       30.11R
OAK RIDGE      CLEAR     76  73  91 CALM      30.13R
CROSSVILLE     CLEAR     74  68  81 CALM      30.18R
NASHVILLE      CLEAR     80  73  79 CALM      30.09R
$$

...KEY TO REMARKS...
VSB - VISIBILITY IN MILES
WCI - WIND CHILL INDEX
HX  - HEAT INDEX

$$


USA.gov is the U.S. government's official web portal to all federal, state and local government web resources and services.